Find Kosmos-872

NORAD ID: 9589 Int'l Des: 1976-118 Owner: GUKOSR Country: SU operational
LEOCIRCULAR

Current View

Loading 3D Globe...

About Kosmos-872

Description loading...

Upcoming Passes

Passes for default location (London). Set your location on the main map for personalized predictions.

Altitude History

Loading altitude history...

Two-Line Element Set

1 9589U 76118B 26151.02315277 .00000001 00000-0 10209-3 0 9992
2 9589 74.0316 347.9184 0041989 236.9664 279.6187 12.58109879272345
Epoch: May 31, 2026 • Age: 23 hours

Current Status

Altitude 1458.7 km
Velocity 7.13 km/s
Sub-Earth Point 62.45°N, 104.28°W
Type other

Most Searched